Tracking 35331 objects as of 15-Sep-2026
HD Live streaming from Space Station
objects crossing your sky now

STARLINK-30122

Track STARLINK-30122 now!
10-day predictions
STARLINK-30122 is classified as:


NORAD ID: 56688
Int'l Code: 2023-067A
Launch date: May 19, 2023
Source: United States (US)
Launch site: AIR FORCE EASTERN TEST RANGE (AFETR)
Your satellite tracking list
Your tracking list is empty




NASA's NSSDC Master Catalog

Two Line Element Set (TLE):
1 56688U 23067A   26257.56612919  .00000077  00000-0  12310-4 0  9997
2 56688  43.0041 291.3963 0001510 279.2445  80.8236 15.27579085184571
Source of the keplerian elements: AFSPC